Regional Weather Roundup
Issued by NWS

Home | Current Version | Previous Version | Graphics & Text | Print | Product List | Glossary On
Versions: 1 2 3 4 5 6 7 8 9 10 11 12 13 14 15 16 17 18 19 20 21 22 23 24 25 26 27 28 29 30 31 32 33 34 35 36 37 38 39 40 41 42 43 44 45 46 47 48 49 50
000
ASUS45 KCYS 262310
RWRWY

WYOMING REGIONAL WEATHER ROUNDUP
NATIONAL WEATHER SERVICE CHEYENNE WY
500 PM MDT FRI AUG 26 2016

NOTE:  "FAIR" INDICATES FEW OR NO CLOUDS BELOW 12,000 FEET
WITH NO SIGNIFICANT WEATHER AND/OR OBSTRUCTIONS TO VISIBILITY.

WYZ001-270000-
YELLOWSTONE NATIONAL PARK

CITY           SKY/WX    TMP DP  RH WIND       PRES   REMARKS
LK YELLOWSTONE   N/A     63  26  24 VRB7G17   30.16S
W YELLOWSTONE  NOT AVBL

$$
WYZ002>013-054>058-071-098>099-270000-
NORTHERN WYOMING

CITY           SKY/WX    TMP DP  RH WIND       PRES   REMARKS
JACKSON        MOSUNNY   70  27  19 W8G17     30.07S
CODY           FAIR      57  46  67 N9        30.06R
GREYBULL       PTSUNNY   71  36  27 W5        30.00S
WORLAND        FAIR      72  37  28 NE6       30.00F
SHERIDAN       PTSUNNY   71  40  32 CALM      30.01S
BUFFALO        FAIR      72  38  29 E8        30.06F
GILLETTE       FAIR      71  41  33 N12       30.02R
HULETT         FAIR      59  52  77 NE9       30.06R
NEWCASTLE      FAIR      68  45  42 S5G16     30.04S

$$
WYZ014>020-022>026-101>103-270000-
CENTRAL WYOMING

CITY           SKY/WX    TMP DP  RH WIND       PRES   REMARKS
BIG PINEY      FAIR      67  33  28 NE15G21   30.12F
PINEDALE       FAIR      61  32  33 NE15      30.15F
DUBOIS         FAIR      61  36  39 E6        30.11F
LANDER         FAIR      67  46  47 N13       30.05R
RIVERTON       FAIR      68  41  37 N14       30.06R
CASPER         FAIR      73  37  27 S5        30.03F
DOUGLAS        FAIR      76  36  23 NW10      30.03F

$$
WYZ021-027>030-104>119-270000-
SOUTHERN WYOMING

CITY           SKY/WX    TMP DP  RH WIND       PRES   REMARKS
EVANSTON       FAIR      71  31  22 W16G29    30.12S
FORT BRIDGER   MOCLDY    67  35  31 SE15G30   30.14S
ROCK SPRINGS   LGT RAIN  57  42  57 VRB3      30.17R
DIXON          FAIR      65  35  32 N10       30.17F
RAWLINS        FAIR      67  32  27 S20G36    30.14R
SARATOGA       MOCLDY    59  36  41 W28G37    30.19R
LARAMIE        PTSUNNY   69  26  20 N6        30.13S
CHEYENNE       FAIR      64  45  49 E8        30.11F
TORRINGTON     FAIR      69  54  58 SE14      30.02F
PINE BLUFFS    CLOUDY    55  46  71 S3        30.11R

$$



USA.gov is the U.S. government's official web portal to all federal, state and local government web resources and services.